SCP
3 2 2 1 0 0 0 0 0 0 0 0 0 0 0 0 0 0 0 0 0 0 0 0 0 0 0 0 0 0 0 0 0 0 0 0 0 0 0 0 0 0 0
3 2 2 1 0 0 0 0 0 0 0 0 0 0 0 0 0 0 0 0 0 0 0 0 0 0 0 0 0 0 0 0 0 0 0 0 0 0 0 0 0 0 0
3 3 2 1 0 0 0 0 0 0 0 0 0 0 0 0 0 0 0 0 0 0 0 0 0 0 0 0 0 0 0 0 0 0 0 0 0 0 0 0 0 0 0
4 4 3 1 0 0 0 0 0 0 0 0 0 0 0 0 0 0 0 0 0 0 0 0 0 0 0 0 0 0 0 0 0 0 0 0 0 0 0 0 0 0 0
4 4 2 1 0 0 0 0 0 0 0 0 0 0 0 0 0 0 0 0 0 0 0 0 0 0 0 0 0 0 0 0 0 0 0 0 0 0 0 0 0 0 0
3 2 1 0 0 0 0 0 0 0 0 0 0 0 0 0 0 0 0 0 0 0 0 0 0 0 0 0 0 0 0 0 0 0 0 0 0 0 0 0 0 0 0
1 1 0 0 0 0 0 0 0 0 0 0 0 0 0 0 0 0 0 0 0 0 0 0 0 0 0 0 0 0 0 0 0 0 0 0 0 0 0 0 0 0 0
0 0 0 0 0 0 0 0 0 0 0 0 0 0 0 0 0 0 0 0 0 0 0 0 0 0 0 0 0 0 0 0 0 0 0 0 0 0 0 0 0 0 0
0 0 0 0 0 0 0 0 0 0 0 0 0 0 0 0 0 0 0 0 0 0 0 0 0 0 0 0 0 0 0 0 0 0 0 0 0 0 0 0 0 0 0
0 0 0 0 0 0 0 0 0 0 0 0 0 0 0 0 0 0 0 0 0 0 0 0 0 0 0 0 0 0 0 0 0 0 0 0 0 0 0 0 0 0 0
0 0 0 0 0 0 0 0 0 0 0 0 0 0 0 0 0 0 0 0 0 0 0 0 0 0 0 0 0 0 0 0 0 0 0 0 0 0 0 0 0 0 0
0 0 0 0 0 0 0 0 0 0 0 0 0 0 0 0 0 0 0 0 0 0 0 0 0 0 0 0 0 0 0 0 0 0 0 0 0 0 0 0 0 0 0
0 0 0 0 0 0 0 0 0 0 0 0 0 0 0 0 0 0 0 0 0 0 0 0 0 0 0 0 0 0 0 0 0 0 0 0 0 0 0 0 0 0 0
0 0 0 0 0 0 0 0 0 0 0 0 0 0 0 0 0 0 0 0 0 0 0 0 0 0 0 0 0 0 0 0 0 0 0 0 0 0 0 0 0 0 0
0 0 0 0 0 0 0 0 0 0 0 0 0 0 0 0 0 0 0 0 0 0 0 0 0 0 0 0 0 0 0 0 0 0 0 0 0 0 0 0 0 0 0
0 0 0 0 0 0 0 0 0 0 0 0 0 0 0 0 0 0 0 0 0 0 0 0 0 0 0 0 0 0 0 0 0 0 0 0 0 0 0 0 0 0 0
0 0 0 0 0 0 0 0 0 0 0 0 0 0 0 0 0 0 0 0 0 0 0 0 0 0 0 0 0 0 0 0 0 0 0 0 0 0 0 0 0 0 0
0 0 0 0 0 0 0 0 0 0 0 0 0 0 0 0 0 0 0 0 0 0 0 0 0 0 0 0 0 0 0 0 0 0 0 0 0 0 0 0 0 0 0
0 0 0 0 0 0 0 0 0 0 0 0 0 0 0 0 0 0 0 0 0 0 0 0 0 0 0 0 0 0 0 0 0 0 0 0 0 0 0 0 0 0 0
0 0 0 0 0 0 0 0 0 0 0 0 0 0 0 0 0 0 0 0 0 0 0 0 0 0 0 0 0 0 0 0 0 0 0 0 0 0 0 0 0 0 0
0 0 0 0 0 0 0 0 0 0 0 0 0 0 0 0 0 0 0 0 0 0 0 0 0 0 0 0 0 0 0 0 0 0 0 0 0 0 0 0 0 0 0
0 0 0 0 0 0 0 0 0 0 0 0 0 0 0 0 0 0 0 0 0 0 0 0 0 0 0 0 0 0 0 0 0 0 0 0 0 0 0 0 0 0 0
0 0 0 0 0 0 0 0 0 0 0 0 0 0 0 0 0 0 0 0 0 0 0 0 0 0 0 0 0 0 0 0 0 0 0 0 0 0 0 0 0 0 0
0 0 0 0 0 0 0 0 0 0 0 0 0 0 0 0 0 0 0 0 0 0 0 0 0 0 0 0 0 0 0 0 0 0 0 0 0 0 0 0 0 0 0
0 0 0 0 0 0 0 0 0 0 0 0 0 0 0 0 0 0 0 0 0 0 0 0 0 0 0 0 0 0 0 0 0 0 0 0 0 0 0 0 0 0 0
0 0 0 0 0 0 0 0 0 0 0 0 0 0 0 0 0 0 0 0 0 0 0 0 0 0 0 0 0 0 0 0 0 0 0 0 0 0 0 0 0 0 0
Wind_Speed
8 7 7 6 6 6 5 5 4 4 4 4 4 4 4 4 4 3 4 4 5 5 5 5 6 5 4 4 3 3 3 3 4 5 3 3 4 5 5 4 4 5 5
8 7 7 7 6 6 5 5 5 5 5 5 5 4 5 5 5 5 5 5 5 6 6 5 6 5 5 4 4 4 4 4 4 6 4 3 4 5 5 5 5 5 5
8 8 7 7 6 6 6 5 5 5 5 5 4 5 5 5 5 6 6 6 6 6 6 6 6 5 6 5 5 5 5 5 4 4 5 3 3 4 4 5 5 4 5
8 8 8 8 8 7 7 6 6 6 5 6 5 6 6 6 6 6 6 6 6 6 6 6 6 6 7 6 6 6 5 5 4 4 4 4 4 4 2 3 4 3 4
9 8 9 8 7 7 6 6 6 6 6 6 5 6 5 5 6 6 6 6 6 6 5 6 6 8 10 8 6 6 5 5 4 4 4 3 4 3 3 3 3 4 4
9 9 8 7 7 7 7 6 6 6 5 5 6 6 6 6 8 9 7 5 5 6 6 6 6 8 10 11 12 11 9 7 6 5 5 5 6 5 4 3 3 2 4
9 8 8 8 8 8 7 6 6 6 5 6 6 6 7 8 11 11 11 6 6 6 6 6 6 7 8 6 8 10 10 12 12 8 7 8 7 6 5 4 4 4 5
9 8 8 8 8 7 6 7 7 5 5 6 6 7 7 8 11 12 12 8 7 7 7 7 7 8 8 7 7 7 7 8 9 8 8 9 9 7 7 7 6 5 5
8 8 8 8 8 7 7 8 6 5 6 6 5 7 7 9 11 12 11 5 6 8 8 7 7 8 11 11 7 7 8 7 9 12 12 12 13 13 9 4 4 4 5
9 8 7 7 8 8 8 8 6 6 7 6 7 7 8 8 11 13 11 5 6 7 6 7 10 10 10 9 6 6 7 8 6 6 6 7 8 9 11 8 7 6 4
6 6 6 6 7 7 6 6 6 6 6 6 7 7 7 9 11 13 12 6 7 7 6 6 6 10 11 10 8 6 10 8 5 5 6 6 5 5 6 7 8 7 7
5 5 5 5 5 5 5 5 5 5 6 7 6 7 7 7 9 11 13 13 11 7 7 6 7 10 11 10 8 9 13 9 4 4 5 6 6 7 7 7 8 9 10
3 4 4 4 4 4 4 5 5 5 5 6 6 7 7 6 7 12 13 13 14 9 7 10 10 11 10 8 11 14 10 6 5 6 7 8 7 7 6 5 6 7 8
3 3 3 3 4 4 4 4 5 5 6 6 6 7 7 6 6 6 6 6 8 8 7 7 9 10 9 10 9 8 6 6 7 8 7 7 6 5 5 5 5 4 4
1 2 2 3 4 4 5 5 7 7 8 9 8 8 7 8 10 12 8 6 6 5 3 2 3 3 4 5 5 6 6 6 7 7 7 7 6 6 6 5 4 4 5
1 2 2 3 3 4 5 7 10 12 14 16 16 13 10 13 13 12 14 13 10 7 5 3 5 5 6 7 6 6 6 6 7 7 7 7 7 7 7 5 5 5 6
1 2 3 3 3 4 5 6 8 9 12 14 15 17 17 15 14 13 12 11 9 9 5 6 6 7 7 7 7 7 7 7 6 6 7 7 7 7 6 6 6 6 6
3 4 4 3 4 5 5 6 6 7 8 8 9 13 15 16 15 13 10 6 4 6 6 7 8 7 7 7 7 7 7 6 5 6 7 7 7 7 6 7 6 7 7
3 3 4 4 5 5 5 6 6 7 7 7 7 8 10 10 9 9 9 6 7 8 8 8 8 8 7 7 7 6 6 6 6 6 6 7 6 6 7 7 7 9 8
4 8 7 5 5 5 5 6 6 6 6 6 6 6 4 2 3 4 6 7 7 8 7 7 7 7 7 6 6 6 6 6 6 6 6 6 6 6 7 8 7 7 7
4 6 9 7 6 6 6 6 6 6 6 6 6 7 7 5 5 6 6 6 7 8 7 7 6 6 6 5 5 6 6 6 5 5 5 5 5 6 6 6 7 7 6
4 5 5 6 6 6 6 6 6 6 7 7 6 6 7 4 4 5 5 5 6 6 5 5 5 4 5 5 5 5 5 5 4 4 5 5 5 5 5 5 6 6 6
4 6 6 6 6 8 7 5 5 5 6 6 6 5 4 4 3 4 4 4 4 4 3 3 4 4 4 3 3 3 4 4 4 4 4 5 5 5 5 5 6 6 6
4 5 6 6 6 5 5 5 5 5 6 6 5 5 4 4 4 4 4 3 3 2 2 2 3 4 5 3 3 2 3 3 3 4 5 5 5 5 5 5 6 7 7
4 4 5 5 5 5 6 6 6 6 6 6 6 5 4 4 3 2 2 1 2 1 2 2 2 2 3 3 3 3 4 4 4 4 4 4 6 6 6 6 5 5 6
4 4 4 5 5 5 6 6 6 6 6 6 5 4 3 3 2 1 1 1 1 1 1 1 1 2 2 2 3 3 4 5 5 6 4 5 6 6 6 5 6 6 6
Wind_Direction
175 174 168 177 180 177 182 194 196 201 202 208 218 223 229 237 238 232 240 246 244 254 257 248 251 248 246 248 243 238 229 206 245 269 256 272 282 289 296 289 276 265 261
175 172 176 180 179 181 193 202 199 204 211 214 217 221 230 235 233 231 242 246 239 245 251 250 256 256 248 245 240 241 239 226 228 264 274 274 271 275 277 282 279 269 257
171 172 177 182 184 193 202 205 204 206 215 220 218 224 232 236 236 235 233 238 236 237 240 241 249 251 254 250 244 243 242 245 223 238 263 261 269 274 286 288 285 282 274
172 176 184 192 194 200 203 204 208 211 216 222 224 227 231 234 237 238 234 234 237 241 240 239 242 240 244 248 249 244 241 244 239 239 255 263 266 271 271 280 296 292 288
172 182 194 197 196 198 201 208 213 216 221 221 225 232 235 235 235 232 230 231 233 243 248 246 245 248 248 246 245 238 235 236 237 238 249 259 263 269 263 257 271 286 285
176 189 192 190 193 199 205 210 214 220 225 221 226 232 239 241 239 231 222 226 229 235 247 253 258 262 264 263 263 256 236 228 229 232 240 240 249 244 246 250 259 281 290
182 188 188 190 197 205 207 207 214 219 219 224 233 234 241 249 251 247 239 224 228 235 240 249 262 263 263 260 266 270 264 251 234 225 231 238 243 236 232 247 243 239 246
186 193 194 193 202 207 205 211 217 215 217 226 233 236 241 251 252 250 247 233 232 238 238 239 245 258 262 254 256 262 259 258 249 237 229 237 239 235 223 230 239 251 258
194 200 200 197 202 204 210 218 218 215 224 227 233 236 241 254 254 253 245 226 235 245 245 244 241 249 259 259 253 256 264 268 264 251 239 241 244 244 234 229 236 239 262
203 204 202 198 202 208 215 218 217 216 226 231 239 238 238 247 253 253 242 216 234 247 252 250 247 249 257 259 239 238 253 262 266 274 269 264 256 253 244 224 219 224 238
200 197 200 203 207 212 216 220 221 226 235 239 246 248 243 245 255 254 241 212 224 238 245 248 246 250 254 254 238 226 241 250 256 256 262 265 264 255 246 231 220 218 223
184 194 206 211 215 216 218 230 230 228 239 247 252 261 258 252 248 249 241 225 219 223 237 241 244 250 251 252 250 244 250 256 249 251 257 260 259 257 251 240 230 227 227
180 205 216 218 222 219 216 229 237 233 237 250 249 256 261 255 249 243 240 234 227 223 236 240 245 253 258 257 253 253 254 244 236 244 251 254 250 249 249 250 247 237 237
192 221 226 225 239 242 237 232 235 239 243 247 248 252 255 255 248 240 235 235 233 232 241 251 257 260 257 254 258 258 242 230 229 240 248 253 251 247 246 238 241 238 241
209 236 247 246 248 257 257 248 245 242 238 239 245 242 243 253 248 229 214 216 213 215 208 238 249 255 257 257 255 252 244 236 236 240 244 250 250 247 247 235 227 226 229
244 266 260 260 265 266 273 282 265 258 260 250 247 246 244 243 251 238 225 224 215 186 173 225 242 244 247 252 255 258 249 241 239 237 239 241 244 244 247 240 225 224 231
275 278 278 274 274 275 276 278 288 289 277 266 258 255 249 250 248 238 226 217 202 174 196 231 239 244 246 246 247 250 253 249 240 236 238 240 240 241 239 238 231 229 233
321 302 296 283 277 274 274 275 275 281 290 288 274 262 257 250 247 239 216 179 198 201 221 231 238 241 241 243 244 246 251 253 245 240 241 240 237 235 235 235 231 228 231
330 308 296 286 281 279 280 282 281 279 278 280 285 285 270 256 249 233 186 192 218 223 224 231 237 239 241 241 242 244 246 248 247 242 241 241 237 232 236 235 232 231 227
319 312 312 301 294 290 288 289 286 283 282 280 278 276 275 246 233 212 198 213 226 235 233 234 237 237 240 241 242 245 248 248 248 245 244 243 237 231 234 235 231 227 225
310 308 310 309 296 288 287 285 283 283 283 278 273 269 253 236 238 234 218 216 225 231 231 234 237 238 240 242 243 247 249 251 250 249 249 247 240 235 234 232 231 227 224
303 301 301 300 299 296 293 286 285 288 289 285 285 286 271 252 245 244 233 229 226 225 226 229 234 235 234 237 241 246 250 253 255 257 257 253 247 241 236 231 231 226 222
301 305 306 305 304 302 303 299 299 299 296 295 296 295 286 265 252 245 239 235 232 230 227 224 231 242 242 241 238 232 240 251 253 254 261 263 259 251 239 234 234 229 223
301 305 306 308 311 309 306 305 305 303 300 297 290 280 273 265 256 252 245 236 232 231 222 220 228 236 242 246 239 234 240 256 267 261 259 262 265 260 250 241 237 231 227
303 308 309 310 313 315 312 310 309 308 307 302 295 289 282 274 267 258 246 238 234 228 221 222 236 248 253 256 248 248 253 262 267 272 270 265 265 264 259 251 242 236 230
304 308 309 312 313 313 312 309 309 310 309 306 302 298 298 297 286 279 294 300 267 254 260 265 266 275 287 284 276 276 275 272 270 268 264 261 260 261 260 254 248 240 234